Rome Ciampino, Italy

5:26 AM CEST on May 28, 2017 (GMT +0200)
Ciampino

Weather History for LIRA - October, 2010

Change the Weather History Date:

Sunday, October 3, 2010

  Actual Average Record
Temperature  
Mean Temperature 67 °F -  
Max Temperature 77 °F 70 °F 82 °F (2007)
Min Temperature 57 °F 50 °F 53 °F (1998)
Cooling Degree Days 2    
Growing Degree Days 17 (Base 50)    
Moisture  
Dew Point 58 °F    
Average Humidity 79    
Maximum Humidity 100    
Minimum Humidity 47    
Precipitation  
Precipitation 0.00 in 0.13 in - ()
Sea Level Pressure  
Sea Level Pressure 30.05 in    
Wind  
Wind Speed 3 mph ()    
Max Wind Speed 10 mph    
Max Gust Speed -    
Visibility 6.2 miles    
Events      
Averages and records for this station are not official NWS values.
T = Trace of Precipitation, MM = Missing Value Source: Averaged Metar Reports

Daily Weather History Graph

Daily Weather History Graph

Search for Another Location

Airport or City:

Trip Planner

Search our weather history database for the weather conditions in past years. The results will help you decide how hot, cold, wet, or windy it might be!

Date:

Astronomy

Oct. 03, 2010 Rise Set
Actual Time 7:08 AM CEST 6:48 PM CEST
Civil Twilight 6:40 AM CEST 7:16 PM CEST
Nautical Twilight 6:08 AM CEST 7:48 PM CEST
Astronomical Twilight 5:35 AM CEST 8:20 PM CEST
Moon 1:39 AM CEST (10/3) 4:07 PM CEST (10/3)
Length of Visible Light 12h 35m
Length of Day
11h 40m
Waning Crescent, 26% of the Moon is Illuminated
Oct 3
Waning Crescent
Oct 7
New
Oct 14
First Quarter
Oct 23
Full
Oct 30
Last Quarter

Hourly Weather History & Observations

Time (CEST) Temp. Dew Point Humidity Pressure Visibility Wind Dir Wind Speed Gust Speed Precip Events Conditions
12:15 AM 62.6 °F 60.8 °F 94% 30.06 in - SE 3.5 mph - N/A   Clear
12:45 AM 62.6 °F 59.0 °F 88% 30.06 in - ESE 1.2 mph - N/A   Clear
1:15 AM 62.6 °F 59.0 °F 88% 30.06 in - SE 3.5 mph - N/A   Clear
1:45 AM 62.6 °F 59.0 °F 88% 30.06 in - SE 1.2 mph - N/A   Clear
2:15 AM 60.8 °F 59.0 °F 94% 30.06 in - ESE 2.3 mph - N/A   Clear
2:45 AM 60.8 °F 57.2 °F 88% 30.06 in - East 4.6 mph - N/A   Clear
3:15 AM 60.8 °F 57.2 °F 88% 30.06 in - East 3.5 mph - N/A   Clear
3:45 AM 60.8 °F 57.2 °F 88% 30.06 in - ESE 1.2 mph - N/A   Clear
4:15 AM 60.8 °F 57.2 °F 88% 30.06 in - South 1.2 mph - N/A   Clear
4:45 AM 59.0 °F 55.4 °F 88% 30.06 in 6.2 mi NW 2.3 mph - N/A   Scattered Clouds
5:15 AM 59.0 °F 57.2 °F 94% 30.06 in 6.2 mi North 1.2 mph - N/A   Scattered Clouds
5:45 AM 57.2 °F 57.2 °F 100% 30.06 in 6.2 mi North 1.2 mph - N/A   Partly Cloudy
6:15 AM 57.2 °F 57.2 °F 100% 30.06 in 6.2 mi Calm Calm - N/A   Partly Cloudy
6:45 AM 57.2 °F 55.4 °F 94% 30.04 in 6.2 mi NNE 2.3 mph - N/A   Scattered Clouds
7:15 AM 57.2 °F 55.4 °F 94% 30.06 in 6.2 mi Calm Calm - N/A   Scattered Clouds
7:45 AM 57.2 °F 55.4 °F 94% 30.06 in 6.2 mi ENE 1.2 mph - N/A   Scattered Clouds
8:15 AM 57.2 °F 57.2 °F 100% 30.06 in 6.2 mi NNE 2.3 mph - N/A   Scattered Clouds
8:45 AM 59.0 °F 55.4 °F 88% 30.06 in 6.2 mi NNE 3.5 mph - N/A   Scattered Clouds
9:15 AM 62.6 °F 59.0 °F 88% 30.06 in 6.2 mi NNW 2.3 mph - N/A   Scattered Clouds
9:45 AM 62.6 °F 59.0 °F 88% 30.06 in 6.2 mi WNW 2.3 mph - N/A   Scattered Clouds
10:15 AM 64.4 °F 59.0 °F 83% 30.09 in 6.2 mi NW 2.3 mph - N/A   Scattered Clouds
10:45 AM 68.0 °F 60.8 °F 78% 30.09 in 6.2 mi NNE 3.5 mph - N/A   Scattered Clouds
11:15 AM 69.8 °F 59.0 °F 68% 30.09 in 6.2 mi West 2.3 mph - N/A   Scattered Clouds
11:45 AM 73.4 °F 59.0 °F 61% 30.09 in 6.2 mi South 8.1 mph - N/A   Scattered Clouds
12:15 PM 73.4 °F 59.0 °F 61% 30.06 in 6.2 mi South 8.1 mph - N/A   Scattered Clouds
12:45 PM 73.4 °F 57.2 °F 57% 30.06 in 6.2 mi SSE 8.1 mph - N/A   Scattered Clouds
1:15 PM 75.2 °F 55.4 °F 50% 30.06 in 6.2 mi South 5.8 mph - N/A   Scattered Clouds
1:45 PM 77.0 °F 55.4 °F 47% 30.06 in 6.2 mi South 6.9 mph - N/A   Scattered Clouds
2:15 PM 77.0 °F 55.4 °F 47% 30.06 in 6.2 mi South 5.8 mph - N/A   Scattered Clouds
2:45 PM 77.0 °F 55.4 °F 47% 30.04 in 6.2 mi South 5.8 mph - N/A   Scattered Clouds
3:15 PM 75.2 °F 55.4 °F 50% 30.04 in 6.2 mi SSW 5.8 mph - N/A   Scattered Clouds
3:45 PM 77.0 °F 55.4 °F 47% 30.04 in 6.2 mi South 8.1 mph - N/A   Scattered Clouds
4:15 PM 77.0 °F 55.4 °F 47% 30.04 in 6.2 mi South 10.4 mph - N/A   Scattered Clouds
6:15 PM 71.6 °F 59.0 °F 64% 30.01 in 6.2 mi South 9.2 mph - N/A   Partly Cloudy
7:15 PM 69.8 °F 64.4 °F 83% 30.01 in 6.2 mi South 8.1 mph - N/A   Partly Cloudy
8:15 PM 68.0 °F 62.6 °F 83% 30.01 in 6.2 mi South 8.1 mph - N/A   Partly Cloudy
9:15 PM 66.2 °F 62.6 °F 88% 30.01 in 6.2 mi SSE 6.9 mph - N/A   Partly Cloudy
10:15 PM 66.2 °F 60.8 °F 83% 30.01 in 6.2 mi SE 5.8 mph - N/A   Partly Cloudy
11:15 PM 62.6 °F 59.0 °F 88% 30.01 in 6.2 mi ESE 2.3 mph - N/A   Partly Cloudy